STARLINK-31616, 59270

Orbit data source: Space-Track

STARLINK-31616, 59270 is a payload satellite owned by SpaceX/Seattle (US) in LEO that was launched on Tue, 19 Mar 2024 UTC via an FALCON 9 launch vehicle from the Air Force Western Test Range (AFWTR). Payload-class satellites include a variety of spacecraft equipped with specific instruments for various scientific and technological missions. These include communications satellites like Starlink; space stations such as the ISS; scientific satellites like the Hubble; Earth observation satellites from companies like Planet Labs, Umbra, and HawkEye 360; GPS; miniature CubeSats for education and research; and military/defense satellites.

Loading next visibility...
Identifier
59270, 2024-050S
Orbit
LEO
Country
Flag of USUS
Related business
Manufacturer
SpaceX/Seattle
Mission
Operational Commercial Communications
Bus & Motor
STARLINK V2M, Unknown motor
Mass
730 kg wet, ~700 kg dry
Launch date (UTC)
2024-03-19 (2 years ago)
Launch vehicle
FALCON 9
Launch site
Air Force Western Test Range (AFWTR)
Object type
Payload
Rocket body
Debris
Shape & HBR
Box + 2 Pan, 17.7 m
Radar Cross Section
33.884 m², Large (>1 m²)

Expand to show TLE details & history
Last TLE update: 2 days ago

TLE from 2 days ago
0 STARLINK-31616
1 59270U 24050S   26171.40002995  .00003039  00000-0  10102-3 0  9992
2 59270  53.1622  63.9339 0001365  77.3880 282.7275 15.34408007126278
Epoch: 2026-06-20T09:36Z
TLE epoch observation values (Epoch: 2026-06-20T09:36:02.587Z)
Latitude
-0.00005°
Longitude
11.30788°
Altitude
463.375 km
Speed
7.636 km/s
True Right ascension
04h 15m 44s
True Declination
0° 00' 00"
Sunlit
Object was in daylight at epoch
Visualization orbit readout
Latitude
Unknown
Longitude
Unknown
Altitude
Unknown
Speed
Unknown
Apparent Right ascension
Unknown
Apparent Declination
Unknown
Sunlit
N/A
Visualization observer readout
Local Sidereal Time
21:33:11
Azimuth
Unknown
Elevation
Unknown
Doppler factor
Unknown
Orbital elements
Apogee altitude
463.87 km
Perigee altitude
462.002 km
Semi-major axis
6,841.073 km
Eccentricity
0.00014
Inclination
53.1622°
RAAN
63.9339°
Arg. of periapsis
77.388°
True anomaly
282.71224°
Mean anomaly
282.7275°
Eccentric anomaly
282.71987°
Mean motion
3.83581 °/min
Orbital period
93.85 mins
BSTAR
0.00010102
Loading maneuver chart data...
Computing Atmospheric mass density...
Loading historical data...
Loading historical data...
Loading historical data...
Loading historical data...
Loading historical data...
Loading historical data...
Loading historical data...

Documentation

Showing up to 5 results
|